EW9525 Weather Reports


time (UTC)temp
C
wind
direction
speed
KPH
gust
KPH
rain 1hr
cm
rain 24hr
cm
rain mn
cm
humidity
%
barometer
mb
20260503203011 25 69 12.9 24.1 0.00 0.00 0.00 24 1008.6
20260503201504 24 51 12.9 25.7 0.00 0.00 0.00 21 1009.0
20260503200003 25 64 16.1 29.0 0.00 0.00 0.00 22 1009.3
20260503194505 25 31 19.3 29.0 0.00 0.00 0.00 21 1009.4
20260503193118 24 18 20.9 29.0 0.00 0.00 0.00 23 1009.5
20260503191618 24 41 22.5 29.0 0.00 0.00 0.00 24 1009.5
20260503190059 24 46 17.7 30.6 0.00 0.00 0.00 26 1009.9
20260503184553 23 14 14.5 29.0 0.00 0.00 0.00 24 1010.2
20260503183050 23 53 20.9 37.0 0.00 0.00 0.00 25 1010.7
20260503181550 23 44 22.5 30.6 0.00 0.00 0.00 25 1010.9
20260503180055 22 56 20.9 29.0 0.00 0.00 0.00 26 1011.2
20260503174551 22 8 22.5 32.2 0.00 0.00 0.00 26 1011.4
20260503173041 22 11 27.4 37.0 0.00 0.00 0.00 26 1011.7
20260503171539 21 13 27.4 37.0 0.00 0.00 0.00 26 1011.9
20260503081539 7 193 8.0 14.5 0.00 0.00 0.00 56 1012.4
20260503071529 7 174 8.0 12.9 0.00 0.00 0.00 53 1012.6
20260503054516 7 144 3.2 6.4 0.00 0.00 0.00 54 1013.0
20260503053012 8 190 3.2 6.4 0.00 0.00 0.00 50 1013.0
20260503051507 11 148 6.4 12.9 0.00 0.00 0.00 45 1013.0
20260503050005 11 184 6.4 11.3 0.00 0.00 0.00 47 1013.1
20260503044505 10 160 4.8 8.0 0.00 0.00 0.00 46 1013.2
20260503043002 10 191 3.2 6.4 0.00 0.00 0.00 46 1013.3
20260503041506 10 162 3.2 6.4 0.00 0.00 0.00 46 1013.3
20260503040003 11 194 4.8 9.7 0.00 0.00 0.00 42 1013.4
20260503034603 11 159 4.8 9.7 0.00 0.00 0.00 40 1013.5
20260503033105 11 176 4.8 8.0 0.00 0.00 0.00 39 1013.5
20260503031600 12 194 4.8 8.0 0.00 0.00 0.00 38 1013.5
20260503030059 12 173 4.8 6.4 0.00 0.00 0.00 36 1013.6
20260503024559 13 186 4.8 6.4 0.00 0.00 0.00 35 1013.4
20260503023100 15 165 4.8 6.4 0.00 0.00 0.00 31 1013.5
20260503021557 15 148 3.2 6.4 0.00 0.00 0.00 30 1013.4
20260503020059 16 103 4.8 8.0 0.00 0.00 0.00 30 1013.4
20260503014602 18 108 4.8 6.4 0.00 0.00 0.00 27 1013.3
20260503013056 20 112 4.8 6.4 0.00 0.00 0.00 25 1013.4
20260503011555 20 127 3.2 4.8 0.00 0.00 0.00 24 1013.5
20260503010055 21 116 3.2 4.8 0.00 0.00 0.00 21 1013.5
20260503004553 22 140 3.2 11.3 0.00 0.00 0.00 20 1013.5
20260503003052 23 166 6.4 9.7 0.00 0.00 0.00 19 1013.6
20260503001551 23 145 3.2 9.7 0.00 0.00 0.00 18 1013.9
20260503000049 23 221 6.4 17.7 0.00 0.00 0.00 19 1014.1
20260502234553 23 155 9.7 16.1 0.00 0.00 0.00 18 1014.3
20260502233046 23 155 4.8 17.7 0.00 0.00 0.00 19 1014.4
20260502231545 23 203 11.3 22.5 0.00 0.00 0.00 19 1014.7
20260502230042 23 134 4.8 19.3 0.00 0.00 0.00 18 1014.7
20260502224545 23 187 11.3 19.3 0.00 0.00 0.00 18 1014.9
20260502223044 23 206 14.5 24.1 0.00 0.00 0.00 20 1015.0
20260502221537 23 229 9.7 22.5 0.00 0.00 0.00 19 1015.4
20260502220034 23 207 11.3 24.1 0.00 0.00 0.00 19 1015.6
20260502214537 22 190 11.3 20.9 0.00 0.00 0.00 21 1016.0
20260502213029 22 193 9.7 17.7 0.00 0.00 0.00 21 1016.2
20260502211526 22 198 11.3 22.5 0.00 0.00 0.00 21 1016.6
20260502210025 22 171 6.4 14.5 0.00 0.00 0.00 23 1016.9
20260502204520 22 184 14.5 29.0 0.00 0.00 0.00 23 1017.3